Madison, SD

5:56 AM CST on November 13, 2019 (GMT -0600)
Madison Municipal

Weather History for KMDS - September, 2019

Change the Weather History Date:

Wednesday, September 11, 2019

  Actual Average Record
Temperature  
Mean Temperature 60 °F -  
Max Temperature 66 °F 77 °F 91 °F (2012)
Min Temperature 55 °F 50 °F 39 °F (2015)
Degree Days  
Heating Degree Days 4    
Growing Degree Days 10 (Base 50)    
Moisture  
Dew Point 60 °F    
Average Humidity 100    
Maximum Humidity 100    
Minimum Humidity 100    
Precipitation  
Precipitation 4.04 in - - ()
Sea Level Pressure  
Sea Level Pressure 30.00 in    
Wind  
Wind Speed 13 mph ()    
Max Wind Speed 23 mph    
Max Gust Speed 30 mph    
Visibility 9.1 miles    
Events Rain , Thunderstorm    
Averages and records for this station are not official NWS values.
T = Trace of Precipitation, MM = Missing Value Source: Averaged Metar Reports

Daily Weather History Graph

Daily Weather History Graph

Search for Another Location

Airport or City:

Astronomy

Sep. 11, 2019 Rise Set
Actual Time 7:02 AM CDT 7:46 PM CDT
Civil Twilight 6:33 AM CDT 8:15 PM CDT
Nautical Twilight 5:58 AM CDT 8:50 PM CDT
Astronomical Twilight 5:22 AM CDT 9:25 PM CDT
Moon 7:05 PM CDT (9/11) 4:18 AM CDT (9/11)
Length of Visible Light 13h 42m
Length of Day
12h 43m
Waxing Gibbous, 95% of the Moon is Illuminated
Sep 11
Waxing Gibbous
Sep 13
Full
Sep 21
Last Quarter
Sep 28
New
Oct 5
First Quarter

Hourly Weather History & Observations

Time (CDT) Temp. Dew Point Humidity Pressure Visibility Wind Dir Wind Speed Gust Speed Precip Events Conditions
12:00 AM 57.2 °F 57.2 °F 100% 30.07 in 1.0 mi North 13.8 mph - 3.62 in Rain , Thunderstorm Heavy Rain
12:15 AM 57.2 °F 57.2 °F 100% 30.04 in 5.0 mi NNE 21.9 mph 27.6 mph 0.25 in Rain , Thunderstorm Heavy Rain
12:35 AM 55.4 °F 55.4 °F 100% 30.02 in 4.0 mi NNE 20.7 mph 27.6 mph 0.46 in Rain Heavy Rain
12:55 AM 55.4 °F 55.4 °F 100% 30.01 in 10.0 mi NNE 23.0 mph 29.9 mph 0.62 in Rain Heavy Rain
1:15 AM 55.4 °F 55.4 °F 100% 29.99 in 10.0 mi NNE 18.4 mph 28.8 mph 0.06 in Rain , Thunderstorm Rain
1:35 AM 57.2 °F 57.2 °F 100% 30.01 in 7.0 mi NE 12.7 mph 18.4 mph 0.21 in Rain , Thunderstorm Heavy Thunderstorms and Rain
1:40 AM 57.2 °F 57.2 °F 100% 30.00 in 7.0 mi NE 15.0 mph 18.4 mph 0.25 in Rain , Thunderstorm Heavy Thunderstorms and Rain
1:55 AM 57.2 °F 57.2 °F 100% 29.98 in 10.0 mi ENE 17.3 mph 24.2 mph 0.34 in Rain , Thunderstorm Rain
2:00 AM 57.2 °F 57.2 °F 100% 29.98 in 10.0 mi ENE 17.3 mph 24.2 mph 0.35 in Rain , Thunderstorm Rain
2:15 AM 57.2 °F 57.2 °F 100% 29.96 in 10.0 mi East 18.4 mph 26.5 mph 0.02 in Rain Rain
2:20 AM 57.2 °F 57.2 °F 100% 29.94 in 10.0 mi East 19.6 mph 26.5 mph 0.03 in Rain Rain
2:55 AM 57.2 °F 57.2 °F 100% 29.91 in 10.0 mi East 18.4 mph 27.6 mph 0.04 in   Partly Cloudy
3:15 AM 57.2 °F 57.2 °F 100% 29.95 in 10.0 mi East 12.7 mph - N/A   Clear
3:35 AM 57.2 °F 57.2 °F 100% 29.97 in 10.0 mi ENE 15.0 mph - N/A   Clear
3:40 AM 57.2 °F 57.2 °F 100% 29.97 in 10.0 mi ENE 11.5 mph - N/A   Clear
3:55 AM 57.2 °F 57.2 °F 100% 29.96 in 10.0 mi ENE 13.8 mph - N/A   Clear
4:00 AM 57.2 °F 57.2 °F 100% 29.96 in 10.0 mi ENE 12.7 mph - N/A   Clear
4:15 AM 57.2 °F 57.2 °F 100% 29.97 in 10.0 mi East 8.1 mph - N/A   Clear
4:35 AM 57.2 °F 57.2 °F 100% 30.00 in 10.0 mi ENE 6.9 mph - N/A   Clear
4:55 AM 57.2 °F 57.2 °F 100% 30.00 in 10.0 mi ESE 6.9 mph - N/A   Clear
5:00 AM 57.2 °F 57.2 °F 100% 30.00 in 10.0 mi ESE 8.1 mph - N/A   Clear
5:15 AM 57.2 °F 57.2 °F 100% 29.99 in 10.0 mi ESE 4.6 mph - N/A   Mostly Cloudy
5:20 AM 57.2 °F 57.2 °F 100% 29.99 in 10.0 mi East 8.1 mph - N/A   Mostly Cloudy
5:35 AM 57.2 °F 57.2 °F 100% 29.96 in 10.0 mi ESE 10.4 mph - N/A Rain Light Rain
5:55 AM 57.2 °F 57.2 °F 100% 29.95 in 10.0 mi East 11.5 mph - N/A Rain Light Rain
6:00 AM 57.2 °F 57.2 °F 100% 29.95 in 10.0 mi ENE 10.4 mph - N/A Rain Light Rain
6:15 AM 57.2 °F 57.2 °F 100% 30.00 in 10.0 mi North 10.4 mph - N/A   Mostly Cloudy
6:20 AM 57.2 °F 57.2 °F 100% 30.02 in 10.0 mi NNW 10.4 mph - N/A   Mostly Cloudy
6:35 AM 57.2 °F 57.2 °F 100% 30.03 in 10.0 mi NNE 10.4 mph - N/A   Overcast
6:40 AM 57.2 °F 57.2 °F 100% 30.02 in 10.0 mi NE 12.7 mph - N/A   Overcast
6:55 AM 57.2 °F 57.2 °F 100% 30.01 in 10.0 mi ENE 9.2 mph 17.3 mph N/A   Overcast
7:15 AM 57.2 °F 57.2 °F 100% 30.01 in 10.0 mi NE 10.4 mph - N/A   Overcast
7:20 AM 57.2 °F 57.2 °F 100% 30.02 in 10.0 mi NE 8.1 mph - N/A   Overcast
7:35 AM 57.2 °F 57.2 °F 100% 30.02 in 10.0 mi NE 10.4 mph - N/A   Overcast
7:40 AM 57.2 °F 57.2 °F 100% 30.02 in 10.0 mi NE 6.9 mph - N/A   Overcast
7:55 AM 59.0 °F 59.0 °F 100% 30.03 in 10.0 mi NNE 8.1 mph - N/A   Overcast
8:00 AM 59.0 °F 59.0 °F 100% 30.02 in 10.0 mi NE 9.2 mph - N/A   Overcast
8:15 AM 59.0 °F 59.0 °F 100% 30.01 in 10.0 mi NE 11.5 mph 16.1 mph N/A   Overcast
8:35 AM 59.0 °F 59.0 °F 100% 30.00 in 10.0 mi ENE 13.8 mph 21.9 mph N/A   Overcast
8:40 AM 59.0 °F 59.0 °F 100% 30.01 in 10.0 mi ENE 16.1 mph 20.7 mph N/A   Overcast
8:55 AM 59.0 °F 59.0 °F 100% 29.98 in 10.0 mi ENE 19.6 mph - N/A   Overcast
9:15 AM 59.0 °F 59.0 °F 100% 30.03 in 10.0 mi ENE 11.5 mph - N/A   Overcast
9:40 AM 59.0 °F 59.0 °F 100% 30.03 in 10.0 mi East 10.4 mph 17.3 mph N/A   Overcast
9:55 AM 59.0 °F 59.0 °F 100% 30.01 in 10.0 mi East 16.1 mph 21.9 mph N/A   Overcast
10:15 AM 59.0 °F 59.0 °F 100% 30.02 in 10.0 mi East 13.8 mph - N/A   Overcast
10:20 AM 59.0 °F 59.0 °F 100% 30.02 in 10.0 mi East 12.7 mph - N/A   Overcast
10:35 AM 59.0 °F 59.0 °F 100% 30.06 in 10.0 mi East 12.7 mph 17.3 mph N/A   Overcast
10:40 AM 59.0 °F 59.0 °F 100% 30.05 in 10.0 mi ESE 11.5 mph 17.3 mph N/A   Overcast
10:55 AM 60.8 °F 60.8 °F 100% 30.06 in 10.0 mi East 8.1 mph - N/A   Overcast
11:15 AM 60.8 °F 60.8 °F 100% 30.05 in 10.0 mi East 13.8 mph - N/A   Overcast
11:20 AM 60.8 °F 60.8 °F 100% 30.05 in 10.0 mi East 11.5 mph - N/A   Overcast
11:35 AM 59.0 °F 59.0 °F 100% 30.05 in 10.0 mi East 11.5 mph 18.4 mph N/A   Mostly Cloudy
11:55 AM 60.8 °F 60.8 °F 100% 30.05 in 10.0 mi East 10.4 mph - N/A   Overcast
12:15 PM 62.6 °F 62.6 °F 100% 30.06 in 10.0 mi East 10.4 mph - N/A   Overcast
12:20 PM 62.6 °F 62.6 °F 100% 30.06 in 10.0 mi East 8.1 mph - N/A   Overcast
12:35 PM 62.6 °F 62.6 °F 100% 30.06 in 10.0 mi East 8.1 mph - N/A   Overcast
12:40 PM 62.6 °F 62.6 °F 100% 30.06 in 10.0 mi East 8.1 mph - N/A   Overcast
12:55 PM 62.6 °F 62.6 °F 100% 30.06 in 10.0 mi ENE 9.2 mph - N/A   Overcast
1:00 PM 62.6 °F 62.6 °F 100% 30.05 in 10.0 mi ENE 8.1 mph - N/A   Overcast
1:15 PM 64.4 °F 64.4 °F 100% 30.05 in 10.0 mi East 8.1 mph - N/A   Overcast
1:35 PM 64.4 °F 64.4 °F 100% 30.04 in 10.0 mi East 6.9 mph - N/A   Overcast
1:40 PM 64.4 °F 64.4 °F 100% 30.04 in 10.0 mi ENE 9.2 mph - N/A   Overcast
1:55 PM 66.2 °F 66.2 °F 100% 30.04 in 10.0 mi ENE 9.2 mph - N/A   Overcast
2:20 PM 66.2 °F 66.2 °F 100% 30.04 in 10.0 mi ENE 10.4 mph - N/A   Mostly Cloudy
2:35 PM 66.2 °F 66.2 °F 100% 30.03 in 10.0 mi ENE 13.8 mph - N/A   Overcast
2:40 PM 66.2 °F 66.2 °F 100% 30.03 in 10.0 mi NE 15.0 mph - N/A   Overcast
2:55 PM 66.2 °F 66.2 °F 100% 30.02 in 10.0 mi NE 16.1 mph - N/A   Overcast
3:15 PM 66.2 °F 66.2 °F 100% 30.02 in 10.0 mi ENE 15.0 mph 20.7 mph N/A   Mostly Cloudy
3:20 PM 66.2 °F 66.2 °F 100% 30.02 in 10.0 mi NE 15.0 mph 21.9 mph N/A   Mostly Cloudy
3:35 PM 64.4 °F 64.4 °F 100% 30.01 in 10.0 mi NE 17.3 mph 24.2 mph N/A   Overcast
3:55 PM 64.4 °F 64.4 °F 100% 30.01 in 10.0 mi ENE 16.1 mph 24.2 mph N/A   Overcast
4:00 PM 64.4 °F 64.4 °F 100% 30.01 in 10.0 mi ENE 18.4 mph 23.0 mph N/A   Overcast
4:15 PM 64.4 °F 64.4 °F 100% 30.01 in 10.0 mi ENE 15.0 mph 21.9 mph N/A   Overcast
4:35 PM 64.4 °F 64.4 °F 100% 30.00 in 10.0 mi ENE 17.3 mph 26.5 mph N/A   Overcast
4:40 PM 64.4 °F 64.4 °F 100% 30.00 in 10.0 mi ENE 16.1 mph 26.5 mph N/A   Overcast
5:00 PM 64.4 °F 64.4 °F 100% 29.99 in 10.0 mi ENE 16.1 mph 21.9 mph N/A Thunderstorm Overcast
5:15 PM 62.6 °F 62.6 °F 100% 30.01 in 10.0 mi East 16.1 mph 24.2 mph N/A Thunderstorm Overcast
5:35 PM 62.6 °F 62.6 °F 100% 30.02 in 10.0 mi East 10.4 mph 17.3 mph N/A Thunderstorm Thunderstorm
5:40 PM 62.6 °F 62.6 °F 100% 30.03 in 5.0 mi ESE 13.8 mph 17.3 mph 0.02 in Rain , Thunderstorm Light Thunderstorms and Rain
5:55 PM 62.6 °F 62.6 °F 100% 30.02 in 0.8 mi East 18.4 mph 21.9 mph 0.43 in Rain , Thunderstorm Heavy Thunderstorms and Rain
6:00 PM 62.6 °F 62.6 °F 100% 29.99 in 1.0 mi East 19.6 mph 25.3 mph 0.52 in Rain , Thunderstorm Light Rain
6:15 PM 62.6 °F 62.6 °F 100% 30.03 in 10.0 mi East 5.8 mph 21.9 mph N/A Rain , Thunderstorm Light Thunderstorms and Rain
6:35 PM 62.6 °F 62.6 °F 100% 30.03 in 10.0 mi East 16.1 mph - N/A Rain , Thunderstorm Light Rain
6:40 PM 60.8 °F 60.8 °F 100% 30.01 in 10.0 mi East 15.0 mph 23.0 mph 0.01 in Rain , Thunderstorm Light Rain
6:55 PM 60.8 °F 60.8 °F 100% 30.00 in 10.0 mi East 18.4 mph 21.9 mph 0.02 in Thunderstorm Thunderstorm
7:00 PM 60.8 °F 60.8 °F 100% 29.99 in 10.0 mi East 15.0 mph 21.9 mph 0.02 in Thunderstorm Overcast
7:15 PM 60.8 °F 60.8 °F 100% 29.99 in 10.0 mi East 18.4 mph 24.2 mph N/A Rain , Thunderstorm Light Rain
7:35 PM 60.8 °F 60.8 °F 100% 29.99 in 10.0 mi East 17.3 mph - N/A Thunderstorm Overcast
7:55 PM 60.8 °F 60.8 °F 100% 30.00 in 10.0 mi East 15.0 mph 21.9 mph 0.03 in Rain , Thunderstorm Light Rain
8:15 PM 60.8 °F 60.8 °F 100% 29.99 in 10.0 mi ENE 16.1 mph 23.0 mph 0.03 in Rain , Thunderstorm Light Rain
8:20 PM 60.8 °F 60.8 °F 100% 29.98 in 10.0 mi East 18.4 mph 23.0 mph 0.03 in Rain , Thunderstorm Light Rain
8:35 PM 60.8 °F 60.8 °F 100% 29.97 in 10.0 mi ENE 16.1 mph 21.9 mph 0.03 in Rain Light Rain
8:40 PM 60.8 °F 60.8 °F 100% 29.96 in 10.0 mi ENE 16.1 mph 21.9 mph 0.03 in   Overcast
8:55 PM 60.8 °F 60.8 °F 100% 29.94 in 10.0 mi ENE 21.9 mph 28.8 mph 0.03 in Rain Light Rain
9:00 PM 60.8 °F 60.8 °F 100% 29.95 in 10.0 mi ENE 18.4 mph 28.8 mph 0.03 in Rain Light Rain
9:15 PM 60.8 °F 60.8 °F 100% 29.95 in 10.0 mi East 19.6 mph 29.9 mph N/A Rain , Thunderstorm Light Thunderstorms and Rain
9:35 PM 60.8 °F 60.8 °F 100% 29.94 in 10.0 mi East 17.3 mph 21.9 mph 0.04 in Rain , Thunderstorm Light Rain
9:40 PM 60.8 °F 60.8 °F 100% 29.93 in 5.0 mi ENE 19.6 mph 24.2 mph 0.08 in Rain , Thunderstorm Light Rain
9:55 PM 60.8 °F 60.8 °F 100% 29.95 in 10.0 mi East 12.7 mph 23.0 mph 0.24 in Rain , Thunderstorm Light Rain
10:00 PM 60.8 °F 60.8 °F 100% 29.96 in 9.0 mi ESE 12.7 mph 19.6 mph 0.25 in Rain , Thunderstorm Light Rain
10:15 PM 60.8 °F 60.8 °F 100% 29.93 in 5.0 mi East 19.6 mph 24.2 mph 0.06 in Rain , Thunderstorm Light Thunderstorms and Rain
10:20 PM 59.0 °F 59.0 °F 100% 29.94 in 8.0 mi East 17.3 mph 24.2 mph 0.08 in Rain , Thunderstorm Light Thunderstorms and Rain
10:35 PM 59.0 °F 59.0 °F 100% 29.93 in 9.0 mi East 20.7 mph 29.9 mph 0.14 in Rain , Thunderstorm Heavy Thunderstorms and Rain
10:55 PM 59.0 °F 59.0 °F 100% 29.93 in 6.0 mi East 18.4 mph 26.5 mph 0.23 in Rain , Thunderstorm Thunderstorms and Rain
11:15 PM 59.0 °F 59.0 °F 100% 29.93 in 2.5 mi East 17.3 mph 28.8 mph 0.07 in Rain , Thunderstorm Rain
11:20 PM 59.0 °F 59.0 °F 100% 29.95 in 4.0 mi ESE 12.7 mph 28.8 mph 0.08 in Rain , Thunderstorm Rain
11:35 PM 59.0 °F 59.0 °F 100% 30.00 in 5.0 mi North 9.2 mph - 0.15 in Rain , Thunderstorm Thunderstorms and Rain
11:55 PM 59.0 °F 59.0 °F 100% 29.98 in 1.5 mi NNW 15.0 mph - 1.23 in Rain , Thunderstorm Heavy Rain